User: anonymous   Login
Location: Unspecified
(0.0000°N, 0.0000°E)
Time: 01:40:18
(UTC+01:00)
Language:

Cosmos 1758 - Orbit

View from above orbital plane
View from above orbital plane
View from above satellite
View from above satellite

Ground track
Ground track

The orbit data is extracted from the following two-line orbital elements,

1 16791U 86046A   18021.54842978 -.00000065  00000-0 -67254-5 0  9999
2 16791  82.4698 179.2961 0018044  68.4910 291.8237 15.04610911718515
Epoch (UTC): 21 January 2018 13:09:44
Eccentricity: 0.0018044
inclination: 82.4698°
perigee height: 540 km
apogee height: 565 km
right ascension of ascending node: 179.2961°
argument of perigee: 68.4910°
revolutions per day: 15.04610911
mean anomaly at epoch: 291.8237°
orbit number at epoch: 71851

The dashed part of the orbit path shows where the satellite is in the earth's shadow,  

DLR